This is the latest recevied weather packets stored in our database for station/object EA7OC-10. If no packets are shown the sender has not sent any weather packets the latest 10 day(s).
| Time | Temp. | Humidity | Pressure | Rain* | Wind** | Luminosity | Snow |
|---|---|---|---|---|---|---|---|
| 1777893278 | 28.33° C | 34% | 1015.5 hPa | - | - | - | - |
| 1777892379 | 27.78° C | 34% | 1015.7 hPa | - | - | - | - |
| 1777891477 | 28.33° C | 34% | 1015.8 hPa | - | - | - | - |
| 1777889677 | 28.89° C | 34% | 1016 hPa | - | - | - | - |
| 1777888777 | 28.33° C | 35% | 1016.1 hPa | - | - | - | - |
| 1777886977 | 27.78° C | 37% | 1016.1 hPa | - | - | - | - |
| 1777886077 | 26.67° C | 33% | 1016.2 hPa | - | - | - | - |
| 1777885177 | 27.22° C | 35% | 1016.1 hPa | - | - | - | - |
| 1777884277 | 26.67° C | 35% | 1016.1 hPa | - | - | - | - |
| 1777883376 | 25° C | 37% | 1016 hPa | - | - | - | - |
| 1777882476 | 22.22° C | 34% | 1015.9 hPa | - | - | - | - |
| 1777881576 | 22.22° C | 33% | 1015.8 hPa | - | - | - | - |
| 1777880676 | 22.78° C | 32% | 1015.7 hPa | - | - | - | - |
| 1777879775 | 25° C | 32% | 1015.8 hPa | - | - | - | - |
| 1777878875 | 24.44° C | 38% | 1015.7 hPa | - | - | - | - |
| 1777876980 | 20.56° C | 33% | 1015.5 hPa | - | - | - | - |
| 1777876080 | 21.11° C | 34% | 1015.4 hPa | - | - | - | - |
| 1777875177 | 20° C | 34% | 1015.1 hPa | - | - | - | - |
| 1777874276 | 19.44° C | 35% | 1015.1 hPa | - | - | - | - |
| 1777873376 | 17.78° C | 33% | 1015 hPa | - | - | - | - |
| 1777872476 | 17.78° C | 33% | 1014.7 hPa | - | - | - | - |
| 1777871575 | 18.33° C | 33% | 1014.7 hPa | - | - | - | - |
| 1777870675 | 18.89° C | 33% | 1014.7 hPa | - | - | - | - |
| 1777869775 | 18.33° C | 33% | 1014.6 hPa | - | - | - | - |
| 1777868875 | 18.33° C | 33% | 1014.7 hPa | - | - | - | - |
* Rain since midnight (hover to see other rain measurements)
** Current wind speed in m/s (hover to see current wind gust speed)